Tracking 17147 objects as of 5-July-2015
HD Live streaming from Space Station

ACRIMSAT

Track ACRIMSAT now!
10-day predictions
ACRIMSAT is classified as:


NORAD ID: 26033
Int'l Code: 1999-070B
Perigee: 673.4 km
Apogee: 715.0 km
Inclination: 97.8 °
Period: 98.5 minutes
Semi major axis: 7065 km
RCS: 0.514 m2 (medium)
Launch date: December 21, 1999
Source: United States (US)

Monitor total solar irradiance (TSI) with maximum precision; ascertain the extent of solar radiation variability.
Your satellite tracking list
Your tracking list is empty





NASA's NSSDC Master Catalog

Two Line Element Set (TLE):
1 26033U 99070B   15185.47302910  .00000184  00000-0  45467-4 0  9998
2 26033 097.8418 348.3837 0029467 077.7586 282.6913 14.61893468827971

Source of the keplerian elements: AFSPC

N2YO: 172